Flag for Switzerland Weather past 2 weeks in Köniz, Bern, Switzerland

Now
81 °F

Passing clouds.


Feels Like: 82 °F
Forecast: 58 / 88 °F
Wind: 5 mph from Northwest

Location: Bern / Belp

Current Time: Aug 5, 2015 at 2:55:13 PM

Latest Report: Aug 5, 2015 at 2:20 PM


Visibility: N/A

Pressure: 30.04 "Hg (28.12 "Hg at 579m altitude)

Humidity: 58%

Dew point: 64 °F

Location of KönizLocation

Historic Weather in Köniz — Graph

°F

Köniz temperature yesterday

Maximum temperature yesterday: 79 °F (at 4:20 PM)
Minimum temperature yesterday: 59 °F (at 2:20 AM)
Average temperature yesterday: 69 °F

Past Weeks' High & Low Weather Summary

 TemperatureHumidityPressure
High93 °F (Jul 21, 3:20 PM)100% (Jul 22, 5:20 PM)30.12 "Hg (Jul 22, 5:20 PM)
Low45 °F (Jul 31, 4:50 AM)30% (Jul 21, 3:50 PM)29.74 "Hg (Jul 24, 5:20 PM)
Average67 °F74%29.99 "Hg
* Reported Jul 21 1:20 PM — Aug 5 1:50 PM, Köniz, Weather by CustomWeather, © 2015

Note: Actual official high and low records may vary slightly from our data, if they occured in-between our weather recording intervals... More about our weather records

Advertising

Köniz weather history for previous 24 hours

 ConditionsComfort  
Time TempWeatherWind HumidityBarometerVisibility
1:50 PM
Wed, Aug 5
81 °FPassing clouds.5 mph58%30.04 "HgN/A
1:20 PM79 °FPassing clouds.7 mph61%30.04 "HgN/A
12:50 PM79 °FPassing clouds.8 mph65%30.07 "HgN/A
12:20 PM77 °FPassing clouds.7 mph65%30.07 "HgN/A
11:50 AM77 °FPassing clouds.2 mph69%30.07 "HgN/A
11:20 AM75 °FPassing clouds.2 mph65%30.07 "HgN/A
10:50 AM73 °FPassing clouds.3 mph74%30.09 "HgN/A
10:20 AM72 °FPassing clouds.2 mph78%30.09 "HgN/A
9:50 AM72 °FSunny.1 mph73%30.09 "Hg10 mi
9:20 AM68 °FSunny.1 mph88%30.09 "Hg10 mi
8:50 AM66 °FSunny.1 mph88%30.09 "Hg10 mi
8:20 AM66 °FSunny.1 mph88%30.09 "Hg10 mi
7:50 AM63 °FSunny.1 mph100%30.09 "Hg10 mi
7:20 AM59 °FSunny.No wind100%30.09 "Hg10 mi
6:20 AM57 °FClear.2 mph100%30.07 "Hg10 mi
5:50 AM57 °FFog.1 mph100%30.07 "Hg2 mi
5:20 AM59 °FClear.1 mph100%30.07 "Hg10 mi
4:50 AM57 °FFog.1 mph100%30.07 "Hg1 mi
4:20 AM59 °FClear.3 mph100%30.09 "Hg10 mi
3:50 AM59 °FClear.1 mph100%30.09 "Hg10 mi
3:20 AM59 °FCool.2 mph100%30.09 "HgN/A
2:50 AM61 °FPassing clouds.No wind100%30.09 "HgN/A
2:20 AM63 °FOvercast.1 mph100%30.09 "HgN/A
1:50 AM63 °FPassing clouds.2 mph100%30.09 "HgN/A
1:20 AM63 °FPassing clouds.1 mph100%30.09 "HgN/A
12:20 AM66 °FPartly cloudy.1 mph88%30.12 "HgN/A
11:50 PM
Tue, Aug 4
66 °FPartly cloudy.1 mph94%30.12 "HgN/A
11:20 PM68 °FMostly cloudy.1 mph83%30.12 "HgN/A
10:50 PM68 °FPassing clouds.1 mph83%30.12 "HgN/A
10:20 PM70 °FPartly cloudy.2 mph78%30.12 "HgN/A
9:50 PM70 °FBroken clouds.3 mph78%30.12 "HgN/A
9:20 PM72 °FPartly sunny.6 mph73%30.09 "HgN/A
8:50 PM72 °FBroken clouds.6 mph73%30.09 "HgN/A
8:20 PM73 °FBroken clouds.8 mph69%30.09 "HgN/A
7:50 PM73 °FScattered clouds.10 mph69%30.07 "HgN/A
7:20 PM75 °FPartly sunny.9 mph65%30.07 "HgN/A
6:50 PM77 °FPassing clouds.8 mph65%30.07 "HgN/A
6:20 PM77 °FScattered clouds.7 mph65%30.07 "HgN/A
5:50 PM77 °FScattered clouds.5 mph65%30.07 "HgN/A
5:20 PM79 °FScattered clouds.3 mph58%30.07 "HgN/A
4:50 PM79 °FScattered clouds.2 mph61%30.07 "HgN/A
4:20 PM79 °FScattered clouds.5 mph61%30.07 "HgN/A
3:50 PM77 °FPartly sunny.3 mph69%30.09 "HgN/A
3:20 PM73 °FBroken clouds.2 mph74%30.09 "HgN/A
2:50 PM73 °FBroken clouds.2 mph74%30.09 "HgN/A
2:20 PM72 °FPartly sunny.3 mph78%30.09 "HgN/A
Weather by CustomWeather, © 2015

See weather overviewHow to use our weather pages